1st Responders/1st Detectors/Storm Spotters Weather Summary for Bracken County, KY

Forecast Maps


Reg. NEXRAD Animation


National Fire Danger: Day 1 & 2 Map

Current NWS Watch/Warnings

SPC Convective Day 1 Outlook


Day 2 Outlook

(Click images to enlarge|Page will refresh every 5 minutes)
UK Ag. Weather Center Desktop Severe Weather Service[HERE]
Bracken County, KY Hazardous Weather Outlook Webcast
(9 AM to 9 PM Mon-Fri)
[Fast]
[Dial-up]


UKAWC 1st Detectors/1st Responders Precision Weather Forecast For BRACKEN County, Kentucky
(based on the NWS County Digital Forecast)

ISSUED AT 20:00 UTC ON SATURDAY JAN 20 2018
DAY SATURDAY
EDT 3HR 5P 6P 7P
MAX/MIN -- -- 47°
TEMP 45° 45° 43°
SKY COVER 89% 90% 91%
Clouds
DEW PT 36° 36° 36°
RH 67% 73% 76%
POP 12HR -- -- --
RAIN/SNOW (liq.equ) -- -- --
SNOWFALL -- -- --
WIND SPEED(MPH) 9 9 8
WIND Gust(MPH) 15 15 15
WIND DIR SW SW SW
DEW Lgt Dew Lgt Dew --
HeatIndex 45 39 38
Snow -- -- --
Rain -- -- --
Rain Showers -- -- --
WIND CHILL 40° 40° 38°
SPRAY COND
DRY COND
LIVESTOCK COLDSTRESS



DAY SUNDAY MONDAY TUESDAY WEDNESDAY THURSDAY FRIDAY
EDT 6HR 8P 9P 10P 11P MIDN 1A 2A 3A 4A 5A 6A 7A 8A 9A 10A 11A NOON 1P 2P 3P 4P 5P 6P 7P 8P 9P 10P 11P MIDN 1A 2A 3A 4A 5A 8A 11A 2P 5P 8P 2A 8A 2P 8P 2A 8A 2P 8P 2A 8A 2P 8P 2A 8A 2P 8P
MAX/MIN -- -- -- -- -- -- -- -- -- -- -- -- 38° -- -- -- -- -- -- -- -- -- -- 50° -- -- -- -- -- -- -- -- -- -- 43° -- -- 56° -- -- 34° 40° -- -- 25° 41° -- -- 25° 45° -- -- 31° 52° --
TEMP 43° 43° 43° 43° 41° 41° 41° 41° 41° 41° 41° 40° 40° 41° 41° 43° 45° 47° 49° 49° 49° 50° 49° 47° 47° 47° 47° 47° 45° 47° 47° 47° 47° 47° 49° 54° 56° 54° 49° 40° 34° 40° 34° 29° 25° 38° 36° 29° 25° 41° 40° 34° 31° 49° 47°
SKY COVER 92% 93% 94% 95% 95% 95% 98% 98% 98% 98% 96% 94% 93% 93% 93% 93% 92% 91% 91% 90% 88% 87% 85% 83% 83% 83% 85% 86% 87% 88% 88% 87% 87% 86% 80% 85% 89% 90% 90% 69% 77% 74% 61% 43% 33% 32% 37% 33% 33% 35% 29% 32% 36% 51% 67%
Clouds
DEW PT 36° 38° 38° 38° 38° 38° 38° 38° 38° 38° 38° 38° 38° 38° 40° 40° 41° 43° 43° 45° 45° 45° 45° 45° 43° 43° 43° 43° 43° 43° 43° 43° 43° 43° 43° 45° 45° 47° 45° 36° 31° 27° 27° 25° 22° 25° 25° 23° 23° 27° 27° 25° 27° 32° 36°
RH 79% 82% 82% 81% 86% 85% 88% 88% 88% 89% 88% 92% 88% 88% 92% 92% 88% 85% 83% 82% 83% 79% 82% 89% 89% 88% 88% 86% 92% 86% 85% 85% 85% 82% 79% 71% 66% 77% 85% 81% 89% 62% 74% 85% 88% 59% 66% 80% 95% 54% 57% 69% 81% 54% 65%
POP 12HR 11% -- -- -- -- -- -- -- -- -- -- -- 32% -- -- -- -- -- -- -- -- -- -- -- 31% -- -- -- -- -- -- -- -- -- 24% -- -- -- 83% -- 58% -- 22% -- 7% -- 5% -- 6% -- 7% -- 9% -- 17%
RAIN/SNOW (liq.equ) 0.00in -- -- -- -- -- 0.01in -- -- -- -- -- 0.02in -- -- -- -- -- 0.02in -- -- -- -- -- 0.01in -- -- -- -- -- 0.01in -- -- -- 0.01in -- 0.02in -- 0.24in -- -- -- -- -- -- -- -- -- -- -- -- -- -- -- --
SNOWFALL 0in -- -- -- -- -- 0in -- -- -- -- -- 0in -- -- -- -- -- 0in -- -- -- -- -- 0in -- -- -- -- -- 0in -- -- -- 0in -- 0in -- 0in -- -- -- -- -- -- -- -- -- -- -- -- -- -- -- --
WIND SPEED(MPH) 7 7 7 7 7 7 7 6 6 6 6 6 7 7 7 7 9 9 10 9 9 9 8 8 7 6 6 6 6 6 7 7 7 7 8 9 13 13 14 10 10 15 8 7 5 6 2 5 1 6 6 6 6 8 7
WIND DIR SW SW SW SW SW SW SW S S S S S S S S S S S S S S S S S S S S S S S S S S S S S S S S SW SW W W W W W W W SW SW S SE S S S
HeatIndex 38 38 38 38 37 37 37 38 38 38 38 37 36 37 37 38 39 47 49 49 49 50 49 47 47 47 47 47 45 47 47 47 47 47 49 54 56 54 49 34 26 31 27 23 20 34 33 23 25 38 37 29 26 49 47
Snow -- -- -- -- -- -- -- -- -- -- -- -- -- -- -- -- -- -- -- -- -- -- -- -- -- -- -- -- -- -- -- -- -- -- -- -- -- -- -- -- Slight Chance -- -- -- -- -- -- -- -- -- -- -- -- -- --
Rain Slight Chance Slight Chance Slight Chance Slight Chance Chance Chance Chance Chance Chance Chance Chance Chance Chance Chance Chance Chance Chance Chance Chance Chance Slight Chance Slight Chance Slight Chance Slight Chance Slight Chance Slight Chance -- -- -- -- -- -- -- -- -- -- -- -- -- -- -- -- -- -- -- -- -- -- -- -- -- -- -- -- Slight Chance
Rain Showers -- -- -- -- -- -- -- -- -- -- -- -- -- -- -- -- -- -- -- -- -- -- -- -- -- -- -- -- -- -- -- -- -- -- Chance Chance Definite Definite Likely Chance -- -- -- -- -- -- -- -- -- -- -- -- -- -- --
WIND CHILL 39° 39° 39° 39° 36° 36° 36° 37° 37° 37° 37° 36° 35° 36° 36° 39° 40° -- -- -- -- -- -- -- -- -- -- -- 42° -- -- -- -- -- -- -- -- -- -- 34° 26° 32° 27° 22° 19° 34° -- 24° -- 37° 36° 29° 25° -- --
SPRAY COND
DRY COND
LIVESTOCK COLDSTRESS

Click on individual weather variable above in left-hand column (ie., TEMP, RH, QPF 12HR) to view state forecast maps






NWS 48 Hr. Forecast Maps,

Regional Hourly Observations For BRACKEN County, Kentucky
Issued at 300 PM EST SAT JAN 20 2018
NORTHEAST KENTUCKY
  
CITY           SKY/WX    TMP DP  RH WIND       PRES   REMARKS
LEXINGTON      CLOUDY    48  34  58 SW12      30.11F                  
COVINGTON      PTSUNNY   47  32  56 S12       30.06F                  
FRANKFORT      CLOUDY    49  32  52 SW10G20   30.10R                  


Current NOWCAST not available:
Nowcasts are not issued routinely during fair weather. Only when
precipitation or other significant weather is occuring in this county will these
forecasts be issued. Currently, there is no short term forecast in effect.


Fire Weather Forecast For BRACKEN County, KY
Provided by the National Weather Service:

Issued at: Sat Jan 20 15:05:01 EST 2018

CLOUD COVER                     PCldy       Cloudy        MCldy
PRECIP TYPE                      None         Rain         Rain
CHANCE PRECIP (%)                   0           30           30
TEMP (24H TREND)              46 (+7)     38 (+10)           52
RH % (24H TREND)              60 (+8)    100 (+21)           76
20FTWND-AM(MPH)                 SW  8                      S  6
20FTWND-PM(MPH)                 SW  8        SW  6        SW  7
PRECIP AMOUNT                    0.00         0.03         0.03
PRECIP DURATION                                  2            2
MIXING HGT(FT-AGL)               2050                      1270
TRANSPORT WND (MPH)              W 22                     SW 22
LAL                                 1            1            1
HAINES INDEX                        3            2            2

REMARKS...None.

.FORECAST FOR DAYS 3 THROUGH 7...
.SUNDAY NIGHT...Mostly cloudy. Lows in the lower 40s. South winds around
5 mph. 
.MONDAY...Showers. Highs in the upper 50s. South winds 5 to 10 mph. 
.TUESDAY...Mostly cloudy with rain showers likely. Colder. Lows in the mid
30s. Highs in the lower 40s. West winds 10 to 15 mph. 
.WEDNESDAY...Partly cloudy. Lows in the mid 20s. Highs in the lower 40s.
West winds 5 to 10 mph. 
.THURSDAY...Partly cloudy. Lows in the mid 20s. Highs in the mid 40s.
Southwest winds around 5 mph. 
.FRIDAY...Partly cloudy. Lows in the lower 30s. Highs in the lower 50s.
South winds 5 to 10 mph. 

SPC's Fire Weather Web Tool (Excellent!), SPC's Fire Weather Outlooks, NWS Fire Weather WEB, Fire Danger Class Map,
Keetch-Byram Drought Index, ROMAN Web, Haines Index ,
WFAS's 10-hr Dead Fuel Moist., WFAS's 100-hr Dead Fuel Moist., Probablity of Ignition, Visual blackness Map, Palmer Drought Index, HPC's Rainfall Forecast Maps


Hazardous Weather Outlook For BRACKEN County, Kentucky
510 AM EST Sat Jan 20 2018

 DAY ONE  Today and Tonight.

No hazardous weather is expected at this time.

 DAYS TWO THROUGH SEVEN  Sunday through Friday.

The probability for widespread hazardous weather is low.

 SPOTTER INFORMATION STATEMENT  

Spotter activation is not expected at this time.

Latest BRACKEN County, Kentucky Watches, Warnings and Advisories.
Additional Drought Info.: UKAWC Drought Page, Kentucky Drought Watch


7-Day Forecast For BRACKEN County, KY

TONIGHT
Cloudy. A slight chance of rain this evening, then a chance of rain after midnight. Mild. Lows in the upper 30s. Southwest winds 5 to 10 mph. Chance of rain 30 percent.

SUNDAY
Cloudy with a 30 percent chance of rain. Mild. Highs in the lower 50s. South winds 5 to 10 mph.

SUNDAY NIGHT
Mostly cloudy. A slight chance of rain in the evening. Mild. Lows in the mid 40s. South winds 5 to 10 mph. Chance of rain 20 percent.

MONDAY
Showers, mild. Highs in the upper 50s. South winds 10 to 15 mph. Chance of rain 80 percent.

MONDAY NIGHT
Mostly cloudy. Showers likely, mainly in the evening. Mild. Lows in the upper 30s. Southwest winds around 15 mph. Chance of rain 60 percent.

TUESDAY
Mostly cloudy. Much colder with highs around 40.

TUESDAY NIGHT
Partly cloudy. Lows in the mid 20s.

WEDNESDAY
Partly cloudy in the morning, then clearing. Highs in the lower 40s.

WEDNESDAY NIGHT
Mostly clear. Lows in the mid 20s.

THURSDAY
Mostly sunny. Highs in the mid 40s.

THURSDAY NIGHT
Mostly clear. Lows in the upper 20s.

FRIDAY
Mostly sunny in the morning, then becoming partly cloudy. Mild. Highs in the lower 50s.

FRIDAY NIGHT
Partly cloudy. Mild. Lows in the upper 30s.

SATURDAY
Mostly cloudy with a 40 percent chance of showers. Mild. Highs in the mid 50s.

Ag Weather Center, Department of Biosystems & Agricultural Engineering, University of Kentucky